Regional Weather Roundup
Issued by NWS

Home | Current Version | Previous Version | Text Only | Print | Product List | Glossary On
Versions: 1 2 3 4 5 6 7 8 9 10 11 12 13 14 15 16 17 18 19 20 21 22 23 24 25 26 27 28 29 30 31 32 33 34 35 36 37 38 39 40 41 42 43 44 45 46 47 48 49 50
000
ASUS45 KSLC 280510
RWRUT

UTAH REGIONAL WEATHER ROUNDUP
NATIONAL WEATHER SERVICE SALT LAKE CITY UT
1100 PM MDT THU AUG 27 2015

UTZ001>011-023>025-280600-

NORTHERN UTAH

CITY           SKY/WX    TMP DP  RH WIND       PRES   REMARKS
BRIGHAM CITY   CLEAR     74  47  38 SE5       30.16S
HILL AFB       CLEAR     73  45  36 E10       30.19S
LOGAN          CLEAR     63  51  65 CALM      30.19R
OGDEN          CLEAR     71  49  45 SE3       30.16S
PROVO AIRPORT  CLEAR     66  52  59 CALM      30.21R
SALT LAKE CITY PTCLDY    74  47  38 S8        30.16R
VERNAL         CLEAR     67  42  40 SE3       30.24R
WENDOVER       PTCLDY    73  39  29 W6        30.16S
HEBER CITY     CLEAR     59  43  55 CALM      30.30R
WEST JORDAN    CLEAR     72  41  33 SW5       30.20S

$$

UTZ012>022-026-027-280600-

SOUTHERN/CENTRAL UTAH

CITY           SKY/WX    TMP DP  RH WIND       PRES   REMARKS
BLANDING       PTCLDY    67  45  45 N10       30.32R
BRYCE CANYON   CLEAR     56  49  77 W6        30.44R
CEDAR CITY     CLEAR     68  44  42 SE7       30.27R
DELTA          CLEAR     71  43  36 E5        30.20S
HANKSVILLE     PTCLDY    73  50  43 W5        30.17R
MILFORD        CLEAR     66  45  46 W10       30.21R
MOAB/CYNLANDS  PTCLDY    76  50  40 S6        30.14R
PRICE          CLEAR     70  43  37 N3        30.27R
ST GEORGE      CLEAR     84  46  26 NW5       30.07R
KANAB          CLEAR     66  63  88 CALM      30.27R

$$

REGIONAL REPORTS     COLORADO/ARIZONA

CITY           SKY/WX    TMP DP  RH WIND       PRES   REMARKS
CRAIG, CO      MOCLDY    56  50  80 CALM      30.31R
GRAND JUNCTION MOCLDY    67  59  75 E5        30.21S
RIFLE          CLOUDY    59  55  87 NE8       30.31S
MONTROSE       CLEAR     65  55  70 SE9       30.28R
CORTEZ         CLEAR     61  53  75 NE7       30.25S
PAGE, AZ       CLEAR     78  54  43 CALM      30.15R
GRAND CANYON   MOCLDY    58  46  64 CALM      30.35S
KINGMAN        CLEAR     80  55  42 SE13      30.10R
FLAGSTAFF      CLOUDY    57  56  96 CALM      30.38F

$$

REGIONAL REPORTS    NEVADA/IDAHO/WYOMING

CITY           SKY/WX    TMP DP  RH WIND       PRES   REMARKS
LAS VEGAS, NV  PTCLDY    93  47  20 W6        29.94R
ELY            CLEAR     64  43  46 S13       30.32R
ELKO           PTCLDY    70  33  25 CALM      30.20R
POCATELLO, ID  CLEAR     70  34  26 S9        30.15S
BURLEY         CLEAR     65  47  52 S10       30.13R
EVANSTON, WY   PTCLDY    59  38  45 S6        30.38S
ROCK SPRINGS   PTCLDY    57  45  64 W5        30.35R
KEMMERER       CLEAR     52  37  58 N6        30.40S

$$



USA.gov is the U.S. government's official web portal to all federal, state and local government web resources and services.